Вернуться в каталог

ORBCOMM FM 1

АктивенСвязьVLEO
NORAD 23545·PAYLOAD·🇺🇸 United States

Запущен Apr 3, 1995 с Vandenberg Space Force Base

Loading…

Ближайшие Пролёты (ближайшие 24 часа)

TLE

СвежийSource: Space-Track

Эпоха: Sep 14, 2026, 07:33 UTC

1 23545U 95017A   26257.31501941  .00004065  00000-0  36302-3 0  9999
2 23545  69.9627  15.2802 0005121 317.1484  42.9275 14.96704484680320

Отслеживайте ORBCOMM FM 1 в реальном времени с AllMySat

Download on the App Store